QPF
0.01 0.01 0.01 0.01 0.01 0.01 0.03 0.04 0.04 0.02 0.02 0.01 0.01 0.01 0.01 0.01 0.01 0.01 0.02 0.02 0.02 0.01 0.01 0.01 0.01 0.01 0.01 0.01 0.01 0.02 0.03 0.03 0.03 0.03 0.02 0.02 0.03 0.03 0.02 0.01 0.01 0.02 0.02 0.03
0.01 0.00 0.01 0.01 0.01 0.01 0.01 0.02 0.03 0.03 0.03 0.02 0.01 0.01 0.01 0.01 0.01 0.01 0.02 0.02 0.01 0.01 0.01 0.02 0.01 0.01 0.01 0.01 0.01 0.01 0.01 0.02 0.02 0.02 0.02 0.03 0.03 0.03 0.02 0.02 0.02 0.02 0.02 0.03
0.01 0.00 0.01 0.02 0.02 0.01 0.02 0.02 0.03 0.04 0.04 0.02 0.02 0.01 0.02 0.02 0.01 0.01 0.02 0.02 0.01 0.02 0.02 0.02 0.02 0.02 0.01 0.01 0.01 0.01 0.01 0.01 0.01 0.02 0.02 0.03 0.03 0.03 0.03 0.02 0.03 0.03 0.02 0.01
0.02 0.02 0.02 0.02 0.02 0.02 0.02 0.03 0.03 0.03 0.03 0.03 0.03 0.02 0.02 0.02 0.01 0.02 0.02 0.02 0.02 0.02 0.03 0.04 0.03 0.02 0.02 0.01 0.01 0.01 0.01 0.01 0.01 0.01 0.02 0.03 0.03 0.03 0.03 0.03 0.02 0.02 0.02 0.01
0.03 0.03 0.02 0.01 0.01 0.02 0.02 0.03 0.02 0.02 0.02 0.02 0.02 0.02 0.02 0.01 0.01 0.01 0.02 0.02 0.02 0.03 0.04 0.04 0.04 0.03 0.02 0.02 0.01 0.01 0.02 0.02 0.02 0.01 0.02 0.03 0.03 0.03 0.03 0.03 0.02 0.01 0.01 0.01
0.04 0.04 0.03 0.02 0.01 0.02 0.03 0.04 0.03 0.02 0.02 0.02 0.02 0.02 0.02 0.01 0.01 0.01 0.01 0.01 0.02 0.03 0.03 0.04 0.04 0.04 0.03 0.02 0.02 0.02 0.02 0.02 0.02 0.01 0.02 0.02 0.03 0.02 0.02 0.02 0.02 0.01 0.01 0.01
0.04 0.04 0.03 0.02 0.01 0.02 0.04 0.05 0.03 0.02 0.02 0.02 0.02 0.03 0.02 0.01 0.01 0.01 0.01 0.01 0.01 0.02 0.02 0.03 0.05 0.04 0.04 0.02 0.02 0.02 0.02 0.03 0.03 0.02 0.02 0.02 0.02 0.02 0.01 0.01 0.01 0.01 0.01 0.01
0.05 0.05 0.03 0.02 0.02 0.04 0.04 0.03 0.02 0.02 0.02 0.02 0.02 0.01 0.01 0.01 0.01 0.01 0.01 0.01 0.01 0.01 0.02 0.02 0.03 0.04 0.03 0.03 0.02 0.03 0.03 0.04 0.03 0.02 0.02 0.02 0.02 0.02 0.01 0.01 0.01 0.01 0.01 0.01
0.05 0.04 0.03 0.03 0.04 0.04 0.03 0.03 0.02 0.02 0.02 0.02 0.01 0.01 0.01 0.01 0.01 0.01 0.01 0.01 0.01 0.02 0.02 0.02 0.02 0.03 0.03 0.03 0.03 0.03 0.03 0.03 0.03 0.02 0.02 0.01 0.01 0.01 0.01 0.01 0.01 0.01 0.01 0.01
0.04 0.04 0.03 0.03 0.03 0.03 0.03 0.03 0.02 0.02 0.02 0.02 0.01 0.01 0.01 0.01 0.01 0.02 0.01 0.02 0.01 0.01 0.02 0.02 0.02 0.03 0.04 0.04 0.04 0.03 0.03 0.03 0.03 0.02 0.02 0.02 0.01 0.01 0.01 0.01 0.01 0.01 0.01 0.01
0.03 0.03 0.03 0.03 0.04 0.04 0.03 0.02 0.02 0.02 0.02 0.01 0.01 0.01 0.01 0.01 0.01 0.02 0.02 0.02 0.01 0.01 0.02 0.02 0.02 0.03 0.04 0.04 0.04 0.04 0.03 0.03 0.03 0.02 0.02 0.01 0.01 0.01 0.01 0.01 0.01 0.01 0.01 0.01
0.02 0.02 0.03 0.03 0.03 0.03 0.02 0.02 0.02 0.02 0.02 0.01 0.01 0.01 0.01 0.02 0.02 0.01 0.02 0.02 0.02 0.02 0.02 0.02 0.02 0.02 0.03 0.03 0.03 0.03 0.03 0.03 0.02 0.02 0.02 0.01 0.01 0.01 0.01 0.00 0.01 0.01 0.01 0.01
0.02 0.02 0.02 0.02 0.02 0.01 0.01 0.01 0.01 0.01 0.01 0.02 0.01 0.01 0.01 0.01 0.01 0.01 0.01 0.02 0.02 0.02 0.02 0.03 0.03 0.03 0.03 0.03 0.03 0.03 0.02 0.02 0.02 0.01 0.01 0.01 0.01 0.01 0.01 0.01 0.00 0.00 0.01 0.01
0.02 0.02 0.01 0.01 0.01 0.01 0.01 0.01 0.01 0.01 0.01 0.01 0.01 0.01 0.01 0.01 0.01 0.01 0.02 0.02 0.02 0.02 0.02 0.02 0.02 0.02 0.02 0.02 0.02 0.02 0.02 0.02 0.02 0.01 0.01 0.01 0.01 0.01 0.01 0.01 0.01 0.01 0.01 0.01
0.01 0.01 0.01 0.01 0.01 0.01 0.01 0.01 0.01 0.01 0.02 0.02 0.02 0.02 0.02 0.01 0.02 0.02 0.02 0.02 0.02 0.01 0.02 0.02 0.02 0.02 0.02 0.02 0.02 0.02 0.02 0.02 0.02 0.01 0.01 0.01 0.01 0.01 0.01 0.01 0.01 0.01 0.01 0.01
0.01 0.01 0.01 0.01 0.01 0.01 0.01 0.01 0.02 0.02 0.02 0.02 0.02 0.02 0.02 0.02 0.02 0.02 0.02 0.01 0.01 0.01 0.01 0.02 0.02 0.02 0.01 0.02 0.02 0.02 0.02 0.02 0.02 0.01 0.01 0.01 0.02 0.02 0.02 0.02 0.01 0.01 0.02 0.02
0.01 0.01 0.01 0.01 0.01 0.01 0.01 0.02 0.02 0.02 0.02 0.02 0.02 0.02 0.02 0.02 0.02 0.01 0.01 0.01 0.01 0.01 0.01 0.02 0.02 0.01 0.01 0.01 0.01 0.01 0.02 0.02 0.01 0.01 0.01 0.01 0.02 0.02 0.02 0.01 0.01 0.02 0.02 0.02
0.01 0.01 0.01 0.01 0.01 0.01 0.01 0.02 0.02 0.02 0.02 0.02 0.02 0.02 0.02 0.02 0.01 0.01 0.01 0.01 0.01 0.01 0.01 0.01 0.02 0.02 0.01 0.01 0.01 0.01 0.01 0.01 0.01 0.01 0.01 0.01 0.01 0.01 0.02 0.02 0.02 0.02 0.02 0.03
0.01 0.01 0.01 0.01 0.01 0.02 0.02 0.02 0.01 0.02 0.02 0.02 0.02 0.02 0.02 0.01 0.01 0.01 0.01 0.01 0.01 0.01 0.01 0.01 0.01 0.02 0.02 0.01 0.01 0.01 0.01 0.01 0.01 0.01 0.01 0.01 0.01 0.01 0.01 0.01 0.01 0.02 0.02 0.02
0.01 0.01 0.01 0.01 0.01 0.01 0.01 0.01 0.01 0.01 0.01 0.01 0.01 0.01 0.01 0.01 0.01 0.01 0.01 0.01 0.01 0.01 0.01 0.01 0.01 0.02 0.02 0.01 0.01 0.01 0.01 0.01 0.01 0.01 0.01 0.01 0.01 0.01 0.01 0.01 0.01 0.02 0.02 0.02
0.01 0.01 0.01 0.01 0.01 0.01 0.01 0.01 0.01 0.01 0.01 0.01 0.01 0.02 0.02 0.02 0.02 0.01 0.01 0.01 0.01 0.01 0.01 0.01 0.01 0.01 0.01 0.02 0.02 0.01 0.01 0.01 0.01 0.01 0.01 0.01 0.01 0.01 0.01 0.01 0.02 0.01 0.01 0.02
0.01 0.00 0.01 0.01 0.01 0.01 0.01 0.01 0.01 0.01 0.01 0.01 0.02 0.02 0.02 0.02 0.02 0.01 0.01 0.01 0.02 0.01 0.01 0.01 0.01 0.01 0.02 0.02 0.02 0.01 0.01 0.01 0.01 0.01 0.01 0.01 0.01 0.01 0.01 0.01 0.01 0.01 0.01 0.02
0.00 0.00 0.00 0.01 0.01 0.01 0.01 0.01 0.01 0.01 0.01 0.01 0.01 0.01 0.01 0.02 0.01 0.01 0.01 0.01 0.01 0.01 0.01 0.01 0.01 0.02 0.02 0.02 0.01 0.01 0.01 0.01 0.01 0.01 0.01 0.01 0.01 0.01 0.01 0.01 0.01 0.01 0.01 0.01
0.01 0.01 0.01 0.01 0.01 0.01 0.01 0.01 0.01 0.01 0.01 0.01 0.01 0.01 0.01 0.01 0.01 0.01 0.01 0.01 0.01 0.01 0.01 0.01 0.01 0.01 0.01 0.01 0.01 0.01 0.01 0.01 0.01 0.01 0.01 0.01 0.01 0.01 0.01 0.01 0.01 0.01 0.01 0.01
0.01 0.01 0.01 0.01 0.01 0.01 0.01 0.01 0.01 0.01 0.01 0.01 0.01 0.00 0.00 0.01 0.01 0.01 0.00 0.00 0.00 0.00 0.00 0.00 0.00 0.01 0.01 0.01 0.00 0.01 0.01 0.01 0.01 0.01 0.01 0.01 0.01 0.01 0.01 0.01 0.01 0.01 0.01 0.00
0.01 0.01 0.01 0.01 0.01 0.01 0.01 0.01 0.01 0.01 0.01 0.01 0.01 0.01 0.00 0.00 0.00 0.00 0.00 0.00 0.00 0.00 0.00 0.00 0.00 0.00 0.00 0.00 0.00 0.00 0.00 0.00 0.01 0.01 0.01 0.00 0.00 0.00 0.00 0.00 0.00 0.00 0.00 0.00
0.01 0.01 0.01 0.01 0.01 0.01 0.01 0.00 0.01 0.01 0.01 0.01 0.01 0.00 0.00 0.00 0.00 0.00 0.00 0.00 0.00 0.00 0.00 0.00 0.00 0.00 0.00 0.00 0.00 0.00 0.00 0.00 0.00 0.01 0.01 0.01 0.01 0.00 0.00 0.00 0.00 0.00 0.00 0.00
MSLP
1008.64 1008.53 1008.56 1008.68 1008.84 1009.00 1009.15 1009.30 1009.45 1009.66 1009.96 1010.38 1010.92 1011.56 1012.24 1012.89 1013.43 1013.79 1013.94 1013.84 1013.55 1013.13 1012.68 1012.30 1012.07 1012.06 1012.30 1012.79 1013.46 1014.26 1015.10 1015.91 1016.65 1017.29 1017.85 1018.34 1018.81 1019.30 1019.83 1020.42 1021.08 1021.78 1022.49 1023.19
1010.47 1010.81 1011.23 1011.69 1012.11 1012.44 1012.67 1012.81 1012.88 1012.94 1013.05 1013.25 1013.56 1013.97 1014.44 1014.90 1015.28 1015.50 1015.52 1015.33 1014.95 1014.45 1013.90 1013.42 1013.09 1012.97 1013.08 1013.44 1013.99 1014.67 1015.41 1016.14 1016.82 1017.42 1017.94 1018.41 1018.87 1019.34 1019.87 1020.46 1021.10 1021.78 1022.48 1023.18
1012.70 1013.42 1014.20 1014.95 1015.59 1016.07 1016.35 1016.46 1016.43 1016.32 1016.22 1016.17 1016.21 1016.36 1016.57 1016.80 1016.98 1017.05 1016.95 1016.66 1016.22 1015.66 1015.07 1014.54 1014.13 1013.93 1013.95 1014.20 1014.64 1015.22 1015.85 1016.50 1017.11 1017.66 1018.15 1018.59 1019.04 1019.50 1020.02 1020.59 1021.22 1021.90 1022.59 1023.27
1015.31 1016.30 1017.31 1018.25 1019.03 1019.57 1019.86 1019.90 1019.75 1019.46 1019.14 1018.83 1018.61 1018.49 1018.46 1018.46 1018.46 1018.38 1018.18 1017.84 1017.36 1016.79 1016.19 1015.64 1015.21 1014.96 1014.91 1015.08 1015.42 1015.89 1016.43 1016.99 1017.53 1018.02 1018.48 1018.90 1019.32 1019.77 1020.27 1020.83 1021.44 1022.10 1022.77 1023.43
1018.20 1019.31 1020.41 1021.40 1022.18 1022.70 1022.92 1022.85 1022.56 1022.10 1021.57 1021.04 1020.59 1020.25 1020.01 1019.83 1019.69 1019.51 1019.25 1018.89 1018.42 1017.88 1017.31 1016.78 1016.35 1016.08 1015.98 1016.07 1016.32 1016.70 1017.14 1017.62 1018.08 1018.52 1018.93 1019.32 1019.71 1020.14 1020.61 1021.14 1021.73 1022.35 1022.98 1023.61
1021.21 1022.28 1023.31 1024.21 1024.88 1025.27 1025.36 1025.15 1024.71 1024.09 1023.39 1022.70 1022.09 1021.59 1021.21 1020.93 1020.70 1020.48 1020.22 1019.88 1019.46 1018.98 1018.47 1017.98 1017.58 1017.29 1017.16 1017.18 1017.35 1017.63 1017.99 1018.38 1018.77 1019.14 1019.50 1019.85 1020.21 1020.60 1021.04 1021.52 1022.05 1022.62 1023.20 1023.78
1024.13 1025.02 1025.86 1026.55 1027.02 1027.22 1027.13 1026.77 1026.18 1025.44 1024.64 1023.86 1023.16 1022.58 1022.14 1021.83 1021.59 1021.38 1021.16 1020.89 1020.55 1020.15 1019.71 1019.28 1018.91 1018.62 1018.45 1018.41 1018.50 1018.69 1018.95 1019.25 1019.57 1019.88 1020.19 1020.49 1020.80 1021.15 1021.53 1021.95 1022.41 1022.91 1023.42 1023.92
1026.75 1027.39 1027.94 1028.36 1028.57 1028.55 1028.28 1027.77 1027.09 1026.28 1025.44 1024.63 1023.93 1023.36 1022.94 1022.65 1022.46 1022.31 1022.17 1021.98 1021.74 1021.42 1021.06 1020.69 1020.34 1020.04 1019.84 1019.74 1019.74 1019.84 1020.01 1020.22 1020.46 1020.71 1020.96 1021.22 1021.48 1021.76 1022.08 1022.43 1022.81 1023.22 1023.63 1024.05
1028.93 1029.28 1029.54 1029.66 1029.62 1029.39 1028.96 1028.35 1027.62 1026.81 1025.99 1025.24 1024.59 1024.09 1023.74 1023.53 1023.41 1023.35 1023.29 1023.20 1023.04 1022.80 1022.51 1022.17 1021.84 1021.53 1021.29 1021.12 1021.05 1021.06 1021.14 1021.27 1021.44 1021.62 1021.82 1022.02 1022.23 1022.46 1022.70 1022.97 1023.26 1023.57 1023.90 1024.22
1030.63 1030.70 1030.69 1030.56 1030.30 1029.90 1029.37 1028.73 1028.01 1027.25 1026.52 1025.86 1025.33 1024.94 1024.68 1024.56 1024.53 1024.54 1024.56 1024.54 1024.44 1024.26 1024.01 1023.70 1023.37 1023.04 1022.75 1022.53 1022.38 1022.31 1022.31 1022.36 1022.46 1022.60 1022.74 1022.90 1023.06 1023.23 1023.41 1023.60 1023.81 1024.02 1024.25 1024.48
1031.87 1031.73 1031.50 1031.18 1030.78 1030.30 1029.74 1029.12 1028.46 1027.81 1027.21 1026.69 1026.28 1026.00 1025.84 1025.80 1025.83 1025.90 1025.96 1025.97 1025.90 1025.75 1025.52 1025.22 1024.87 1024.52 1024.19 1023.91 1023.70 1023.56 1023.49 1023.49 1023.54 1023.62 1023.73 1023.85 1023.97 1024.09 1024.22 1024.34 1024.47 1024.60 1024.74 1024.89
1032.78 1032.49 1032.13 1031.71 1031.25 1030.76 1030.23 1029.69 1029.15 1028.64 1028.18 1027.79 1027.50 1027.32 1027.24 1027.24 1027.29 1027.37 1027.42 1027.43 1027.36 1027.21 1026.97 1026.66 1026.30 1025.92 1025.56 1025.24 1024.99 1024.80 1024.69 1024.64 1024.65 1024.70 1024.78 1024.86 1024.96 1025.04 1025.12 1025.19 1025.26 1025.32 1025.39 1025.46
1033.52 1033.15 1032.73 1032.29 1031.84 1031.40 1030.96 1030.53 1030.13 1029.76 1029.44 1029.17 1028.98 1028.86 1028.80 1028.80 1028.84 1028.87 1028.89 1028.86 1028.75 1028.57 1028.31 1027.98 1027.61 1027.23 1026.85 1026.51 1026.23 1026.02 1025.88 1025.81 1025.79 1025.82 1025.87 1025.94 1026.01 1026.07 1026.12 1026.15 1026.16 1026.17 1026.18 1026.18
1034.20 1033.83 1033.42 1033.01 1032.62 1032.26 1031.94 1031.64 1031.38 1031.14 1030.92 1030.75 1030.61 1030.51 1030.44 1030.40 1030.38 1030.34 1030.28 1030.18 1030.02 1029.80 1029.51 1029.18 1028.80 1028.42 1028.05 1027.72 1027.43 1027.22 1027.07 1026.98 1026.95 1026.97 1027.01 1027.06 1027.11 1027.14 1027.16 1027.16 1027.13 1027.10 1027.05 1027.01
1034.92 1034.58 1034.22 1033.88 1033.58 1033.32 1033.11 1032.93 1032.78 1032.64 1032.51 1032.39 1032.26 1032.15 1032.04 1031.93 1031.82 1031.69 1031.54 1031.37 1031.15 1030.88 1030.58 1030.24 1029.88 1029.52 1029.17 1028.86 1028.59 1028.39 1028.24 1028.15 1028.11 1028.12 1028.14 1028.17 1028.20 1028.21 1028.20 1028.17 1028.11 1028.03 1027.94 1027.85
1035.68 1035.39 1035.11 1034.85 1034.63 1034.48 1034.36 1034.28 1034.21 1034.14 1034.05 1033.94 1033.81 1033.66 1033.48 1033.29 1033.09 1032.87 1032.64 1032.40 1032.13 1031.84 1031.52 1031.20 1030.86 1030.54 1030.23 1029.95 1029.71 1029.52 1029.38 1029.29 1029.25 1029.23 1029.23 1029.24 1029.24 1029.22 1029.18 1029.11 1029.01 1028.90 1028.76 1028.63
1036.44 1036.22 1036.01 1035.82 1035.68 1035.60 1035.55 1035.53 1035.50 1035.46 1035.39 1035.28 1035.13 1034.93 1034.69 1034.43 1034.15 1033.86 1033.57 1033.27 1032.97 1032.67 1032.37 1032.06 1031.76 1031.48 1031.21 1030.96 1030.76 1030.58 1030.45 1030.36 1030.30 1030.26 1030.23 1030.20 1030.16 1030.11 1030.02 1029.92 1029.78 1029.62 1029.45 1029.28
1037.12 1036.97 1036.82 1036.70 1036.61 1036.57 1036.56 1036.56 1036.56 1036.53 1036.45 1036.32 1036.14 1035.90 1035.62 1035.31 1034.98 1034.65 1034.32 1034.00 1033.69 1033.39 1033.11 1032.84 1032.58 1032.33 1032.10 1031.89 1031.70 1031.54 1031.40 1031.30 1031.21 1031.14 1031.07 1031.00 1030.92 1030.82 1030.70 1030.55 1030.37 1030.18 1029.96 1029.74
1037.65 1037.56 1037.47 1037.38 1037.33 1037.30 1037.30 1037.31 1037.30 1037.26 1037.17 1037.02 1036.82 1036.56 1036.26 1035.93 1035.59 1035.24 1034.91 1034.59 1034.29 1034.02 1033.76 1033.52 1033.29 1033.07 1032.86 1032.67 1032.49 1032.33 1032.18 1032.05 1031.93 1031.82 1031.72 1031.60 1031.48 1031.34 1031.17 1030.98 1030.76 1030.53 1030.28 1030.02
1038.01 1037.97 1037.91 1037.86 1037.81 1037.79 1037.78 1037.76 1037.74 1037.68 1037.57 1037.42 1037.21 1036.95 1036.65 1036.33 1036.00 1035.67 1035.35 1035.05 1034.77 1034.52 1034.28 1034.06 1033.85 1033.65 1033.45 1033.26 1033.08 1032.90 1032.74 1032.58 1032.43 1032.29 1032.14 1031.99 1031.83 1031.65 1031.44 1031.22 1030.97 1030.70 1030.42 1030.13
1038.20 1038.21 1038.18 1038.13 1038.09 1038.05 1038.02 1037.98 1037.93 1037.85 1037.73 1037.57 1037.37 1037.12 1036.84 1036.54 1036.24 1035.94 1035.65 1035.37 1035.12 1034.88 1034.66 1034.45 1034.25 1034.04 1033.84 1033.64 1033.44 1033.25 1033.06 1032.88 1032.71 1032.54 1032.36 1032.19 1031.99 1031.78 1031.55 1031.30 1031.02 1030.73 1030.42 1030.10
1038.28 1038.32 1038.31 1038.27 1038.22 1038.17 1038.11 1038.05 1037.97 1037.87 1037.74 1037.58 1037.38 1037.15 1036.90 1036.63 1036.35 1036.08 1035.82 1035.56 1035.32 1035.09 1034.87 1034.66 1034.45 1034.23 1034.02 1033.80 1033.58 1033.38 1033.17 1032.98 1032.78 1032.60 1032.41 1032.22 1032.01 1031.79 1031.54 1031.27 1030.97 1030.65 1030.32 1029.98
1038.31 1038.37 1038.37 1038.34 1038.29 1038.22 1038.14 1038.06 1037.96 1037.84 1037.69 1037.52 1037.33 1037.11 1036.87 1036.62 1036.37 1036.11 1035.87 1035.62 1035.39 1035.15 1034.92 1034.70 1034.46 1034.23 1034.00 1033.77 1033.54 1033.32 1033.11 1032.90 1032.71 1032.52 1032.34 1032.14 1031.93 1031.70 1031.44 1031.16 1030.84 1030.51 1030.15 1029.78
1038.33 1038.41 1038.43 1038.41 1038.35 1038.28 1038.18 1038.08 1037.95 1037.81 1037.65 1037.47 1037.26 1037.05 1036.81 1036.57 1036.32 1036.07 1035.82 1035.58 1035.33 1035.08 1034.84 1034.59 1034.34 1034.09 1033.84 1033.60 1033.37 1033.15 1032.94 1032.74 1032.55 1032.37 1032.19 1032.00 1031.79 1031.56 1031.29 1030.99 1030.66 1030.30 1029.91 1029.51
1038.37 1038.47 1038.50 1038.49 1038.44 1038.37 1038.26 1038.14 1038.00 1037.83 1037.65 1037.45 1037.23 1037.00 1036.75 1036.50 1036.24 1035.98 1035.72 1035.46 1035.20 1034.94 1034.67 1034.41 1034.14 1033.88 1033.63 1033.38 1033.15 1032.94 1032.74 1032.55 1032.37 1032.20 1032.02 1031.83 1031.62 1031.37 1031.09 1030.77 1030.41 1030.02 1029.59 1029.15
1038.43 1038.54 1038.60 1038.60 1038.57 1038.49 1038.39 1038.26 1038.09 1037.91 1037.70 1037.47 1037.23 1036.97 1036.70 1036.43 1036.15 1035.87 1035.60 1035.32 1035.04 1034.76 1034.49 1034.21 1033.94 1033.68 1033.43 1033.19 1032.96 1032.75 1032.56 1032.38 1032.21 1032.03 1031.85 1031.64 1031.41 1031.14 1030.83 1030.47 1030.07 1029.63 1029.16 1028.67
1038.49 1038.61 1038.69 1038.71 1038.69 1038.63 1038.53 1038.39 1038.22 1038.01 1037.78 1037.53 1037.26 1036.97 1036.68 1036.38 1036.08 1035.78 1035.49 1035.20 1034.91 1034.63 1034.35 1034.07 1033.81 1033.55 1033.30 1033.07 1032.84 1032.64 1032.44 1032.25 1032.06 1031.86 1031.64 1031.40 1031.13 1030.81 1030.45 1030.04 1029.59 1029.10 1028.57 1028.02
Thickness
5415 5420 5420 5418 5419 5419 5418 5419 5418 5423 5421 5420 5412 5406 5402 5399 5399 5400 5399 5400 5400 5399 5398 5398 5398 5398 5397 5395 5393 5391 5389 5386 5385 5383 5382 5381 5380 5379 5378 5377 5376 5375 5374 5373
5399 5410 5408 5403 5406 5407 5407 5407 5407 5406 5404 5401 5394 5392 5389 5386 5386 5385 5385 5385 5385 5385 5385 5384 5384 5384 5384 5382 5380 5378 5376 5374 5372 5371 5370 5369 5367 5366 5365 5365 5364 5363 5363 5362
5386 5391 5393 5388 5393 5395 5393 5389 5390 5392 5392 5384 5380 5378 5374 5374 5373 5372 5371 5371 5371 5370 5370 5370 5370 5371 5370 5369 5368 5365 5363 5361 5360 5359 5357 5356 5355 5353 5352 5352 5352 5352 5351 5350
5368 5375 5373 5385 5380 5381 5379 5372 5371 5372 5370 5369 5367 5362 5360 5359 5359 5359 5358 5357 5356 5356 5357 5356 5356 5357 5358 5356 5355 5353 5351 5349 5348 5347 5345 5343 5342 5341 5340 5339 5339 5339 5339 5338
5357 5358 5365 5370 5365 5361 5360 5360 5356 5356 5355 5351 5350 5351 5348 5346 5346 5345 5344 5343 5342 5342 5343 5343 5343 5344 5344 5343 5342 5340 5338 5337 5336 5335 5333 5332 5330 5329 5328 5327 5327 5326 5326 5326
5348 5351 5358 5358 5348 5348 5351 5350 5343 5342 5341 5337 5339 5340 5335 5332 5330 5329 5329 5329 5329 5329 5330 5330 5330 5331 5331 5329 5328 5327 5326 5325 5324 5322 5321 5320 5319 5317 5316 5315 5315 5314 5314 5313
5337 5336 5338 5334 5332 5341 5341 5340 5326 5326 5327 5324 5323 5322 5317 5316 5315 5315 5315 5315 5316 5316 5316 5317 5317 5317 5317 5316 5315 5314 5314 5313 5311 5310 5309 5308 5307 5305 5304 5303 5302 5302 5302 5301
5321 5325 5328 5318 5321 5319 5318 5313 5312 5311 5310 5309 5306 5304 5303 5302 5301 5301 5300 5301 5302 5302 5302 5303 5303 5303 5303 5302 5302 5301 5301 5300 5299 5298 5297 5297 5295 5293 5292 5291 5290 5289 5289 5289
5311 5313 5308 5305 5303 5302 5300 5299 5298 5297 5296 5295 5293 5291 5291 5288 5287 5286 5286 5286 5287 5288 5288 5289 5289 5289 5288 5288 5288 5288 5287 5286 5286 5285 5285 5284 5283 5281 5280 5279 5278 5278 5278 5277
5296 5297 5295 5293 5291 5289 5287 5286 5285 5284 5283 5282 5280 5279 5277 5276 5275 5273 5272 5272 5273 5274 5274 5274 5274 5274 5274 5274 5274 5274 5274 5273 5273 5273 5272 5271 5270 5270 5269 5268 5267 5267 5267 5266
5285 5285 5284 5283 5279 5277 5275 5274 5273 5272 5271 5269 5268 5266 5264 5263 5261 5259 5260 5259 5260 5260 5260 5259 5260 5260 5261 5261 5260 5260 5260 5260 5260 5260 5259 5258 5258 5257 5257 5257 5257 5257 5256 5256
5280 5279 5274 5273 5269 5267 5265 5263 5261 5260 5259 5257 5256 5254 5252 5250 5248 5246 5246 5247 5247 5246 5246 5246 5246 5247 5247 5248 5248 5248 5248 5247 5247 5247 5247 5246 5246 5245 5245 5246 5247 5247 5247 5246
5269 5267 5264 5262 5259 5256 5254 5252 5251 5250 5248 5246 5244 5242 5240 5238 5236 5235 5234 5234 5234 5234 5234 5234 5234 5234 5235 5236 5236 5236 5235 5235 5235 5235 5234 5234 5234 5233 5233 5234 5235 5235 5235 5236
5257 5256 5253 5251 5248 5246 5244 5242 5240 5238 5236 5235 5233 5231 5229 5227 5225 5224 5223 5223 5223 5223 5223 5222 5222 5222 5223 5224 5225 5225 5224 5224 5224 5223 5222 5222 5222 5222 5222 5222 5221 5221 5222 5223
5246 5245 5243 5240 5237 5235 5233 5231 5230 5228 5226 5224 5222 5220 5218 5216 5215 5214 5213 5213 5214 5213 5212 5212 5212 5212 5213 5214 5214 5213 5213 5212 5212 5211 5211 5211 5211 5210 5210 5210 5209 5208 5209 5209
5237 5234 5232 5230 5227 5225 5223 5222 5220 5218 5216 5214 5211 5210 5208 5206 5205 5204 5204 5203 5203 5202 5202 5202 5203 5203 5204 5204 5203 5202 5202 5202 5201 5200 5199 5199 5198 5198 5198 5197 5197 5196 5196 5196
5228 5226 5224 5221 5218 5216 5214 5212 5211 5209 5206 5204 5202 5200 5198 5197 5196 5195 5194 5194 5194 5193 5193 5194 5194 5194 5194 5193 5193 5192 5191 5191 5191 5189 5187 5187 5186 5186 5186 5185 5185 5185 5184 5185
5222 5220 5217 5214 5211 5208 5206 5204 5202 5199 5197 5195 5193 5190 5188 5187 5186 5186 5186 5185 5185 5185 5185 5185 5185 5185 5184 5184 5183 5182 5181 5179 5178 5177 5176 5175 5175 5175 5174 5174 5174 5173 5173 5173
5213 5211 5208 5206 5203 5201 5198 5195 5193 5190 5188 5186 5184 5182 5180 5179 5178 5177 5177 5176 5175 5175 5176 5176 5177 5176 5175 5174 5174 5172 5171 5169 5168 5166 5165 5166 5165 5163 5163 5163 5163 5162 5162 5163
5204 5202 5199 5197 5195 5192 5189 5187 5184 5181 5180 5178 5176 5174 5172 5171 5170 5169 5168 5167 5167 5167 5167 5168 5167 5166 5165 5164 5164 5163 5161 5159 5158 5157 5155 5154 5153 5153 5153 5153 5153 5152 5152 5152
5196 5193 5191 5189 5186 5183 5181 5179 5176 5174 5172 5170 5168 5166 5165 5163 5161 5160 5159 5160 5160 5160 5159 5160 5159 5157 5156 5156 5155 5153 5151 5149 5148 5146 5145 5144 5143 5143 5143 5143 5143 5142 5142 5142
5187 5185 5183 5180 5177 5174 5172 5170 5168 5166 5164 5162 5160 5159 5157 5155 5154 5153 5152 5151 5152 5152 5152 5151 5149 5149 5149 5148 5145 5143 5141 5139 5138 5137 5135 5134 5134 5133 5133 5133 5132 5132 5132 5132
5180 5178 5175 5172 5169 5166 5164 5162 5160 5158 5156 5154 5153 5151 5150 5148 5146 5145 5145 5144 5144 5144 5143 5142 5141 5142 5141 5138 5136 5134 5132 5130 5129 5128 5127 5126 5125 5124 5124 5124 5123 5123 5123 5124
5173 5170 5167 5164 5160 5158 5156 5154 5152 5151 5148 5147 5145 5144 5142 5140 5139 5138 5137 5137 5137 5136 5134 5133 5133 5133 5131 5128 5126 5124 5123 5121 5120 5119 5118 5117 5116 5115 5115 5115 5115 5115 5115 5115
5165 5162 5159 5156 5153 5152 5150 5147 5145 5143 5141 5140 5138 5136 5134 5133 5131 5130 5129 5128 5128 5127 5125 5124 5123 5123 5120 5118 5116 5114 5113 5112 5112 5111 5110 5109 5108 5107 5107 5107 5107 5107 5107 5107
5157 5155 5152 5149 5146 5144 5142 5140 5137 5135 5134 5132 5130 5128 5127 5125 5124 5122 5121 5120 5118 5118 5115 5114 5112 5111 5109 5108 5106 5105 5104 5104 5103 5102 5102 5101 5100 5100 5100 5099 5099 5099 5100 5100
5150 5147 5143 5141 5139 5136 5134 5132 5129 5127 5126 5124 5122 5121 5119 5117 5115 5114 5112 5111 5109 5107 5105 5104 5103 5101 5100 5099 5097 5097 5096 5095 5095 5094 5094 5093 5093 5092 5092 5092 5092 5092 5092 5093